Regional Weather Roundup
Issued by NWS

Home | Current Version | Previous Version | Graphics & Text | Print | Product List | Glossary Off
Versions: 1 2 3 4 5 6 7 8 9 10 11 12 13 14 15 16 17 18 19 20 21 22 23 24 25 26 27 28 29 30 31 32 33 34 35 36 37 38 39 40 41 42 43 44 45 46 47 48 49 50

000
ASUS43 KTOP 170959
RWRKS

WEATHER ROUNDUP FOR KANSAS
NATIONAL WEATHER SERVICE GOODLAND KS
500 AM CDT WED SEP 17 2014

NOTE:  "FAIR" INDICATES FEW OR NO CLOUDS BELOW 12,000 FEET WITH NO
SIGNIFICANT WEATHER AND/OR OBSTRUCTIONS TO VISIBILITY.

KSZ001>006-013>018-027>032-041>047-171100-
NORTHWEST KANSAS

CITY           SKY/WX    TMP DP  RH WIND       PRES   REMARKS
GOODLAND       CLEAR     54  49  83 W6        29.98F
HAYS           CLEAR     59  55  88 S3        29.90F
HILL CITY      FOG       54  53  97 NW3       29.91S VSB 1
RUSSELL        CLEAR     64  62  93 S12       29.88F
$$

KSZ061>065-074>080-084>089-171100-
SOUTHWEST KANSAS

CITY           SKY/WX    TMP DP  RH WIND       PRES   REMARKS
DODGE CITY     CLEAR     64  60  87 SW14      29.94F
ELKHART          N/A     64  58  81 W10         N/A
GARDEN CITY    CLEAR     60  58  92 S8        29.94F
GREAT BEND     CLEAR     64  61  88 S9        29.91F
LIBERAL        CLEAR     63  55  77 SW10      29.98F
$$

KSZ066>073-081>083-090>101-171100-
SOUTHEAST KANSAS

CITY           SKY/WX    TMP DP  RH WIND       PRES   REMARKS
CHANUTE        CLOUDY    67  66  97 S10       29.92F FOG
COFFEYVILLE    PTCLDY    67  66  97 S8        29.92F FOG
HUTCHINSON     CLOUDY    68  65  90 S10       29.92F FOG
NEWTON         PTCLDY    66  61  82 S14       29.94F
PARSONS        CLOUDY    68  68 100 S7        29.94F FOG
WICHITA INTL   MOCLDY    67  65  93 S8        29.93F FOG
WICHITA JABRA  CLEAR     66  65  96 S9        29.93F FOG
WINFIELD       CLEAR     69  67  93 S8        29.94F
$$

KSZ007>012-019>026-033>040-048>060-102>105-171100-
NORTHEAST KANSAS

CITY           SKY/WX    TMP DP  RH WIND       PRES   REMARKS
CONCORDIA      CLOUDY    65  65 100 S16       29.88F FOG
EMPORIA        CLOUDY    65  64  97 S9        29.91F FOG
LAWRENCE       CLOUDY    64  61  90 SE5       29.93F
MANHATTAN      CLOUDY    68  65  90 SW6       29.89F
OLATHE IND     TSTM      64  64 100 VRB3      29.97R VSB 1
OLATHE EXE     TSTM      62  61  96 VRB3      29.94R FOG
SALINA         CLOUDY    69  66  90 S10       29.89F
TOPEKA BILLARD CLOUDY    65  64  97 NE5       29.91F
TOPEKA FORBES  CLOUDY    63  62  97 SE5       29.90F
$$


USA.gov is the U.S. government's official web portal to all federal, state and local government web resources and services.